Flag Weather past 2 weeks in Tunis, Tunisia

Now
64 °F

Partly cloudy.


Feels Like: 64 °F
Forecast: 55 / 72 °F
Wind: 3 mph from South

Location: Tunis-Carthage

Current Time: Nov 26, 2014 at 5:41:32 AM

Latest Report: Nov 26, 2014 at 5:00 AM


Visibility: N/A

Pressure: 30.01 "Hg

Humidity: 68%

Dew point: 54 °F

Location of TunisLocation

Historic Weather in Tunis — Graph

°F

Tunis temperature yesterday

Maximum temperature yesterday: 72 °F (at 3:00 PM)
Minimum temperature yesterday: 61 °F (at 7:30 AM)
Average temperature yesterday: 67 °F

Past Weeks' High & Low Weather Summary

 TemperatureHumidityPressure
High79 °F (Nov 14, 2:30 PM)100% (Nov 11, 7:30 AM)30.24 "Hg (Nov 11, 7:30 AM)
Low52 °F (Nov 21, 7:30 AM)39% (Nov 14, 2:30 PM)29.71 "Hg (Nov 11, 1:30 PM)
Average65 °F74%30.01 "Hg
* Reported Nov 11 4:00 AM — Nov 26 4:00 AM, Tunis, Weather by CustomWeather, © 2014

Note: Actual official high and low records may vary slightly from our data, if they occured in-between our weather recording intervals... More about our weather records

Advertising

Tunis weather history for previous 24 hours

 ConditionsComfort  
Time TempWeatherWind HumidityBarometerVisibility
4:00 AM
Nov 26
63 °FPartly cloudy.5 mph73%30.01 "HgN/A
3:30 AM64 °FPartly cloudy.No wind64%30.01 "HgN/A
3:00 AM64 °FPartly cloudy.No wind68%30.04 "HgN/A
2:30 AM64 °FPartly cloudy.No wind68%30.04 "HgN/A
2:00 AM64 °FPartly cloudy.No wind73%30.04 "HgN/A
1:30 AM63 °FPartly cloudy.No wind77%30.04 "HgN/A
1:00 AM64 °FPartly cloudy.No wind73%30.04 "HgN/A
12:30 AM64 °FPartly cloudy.No wind68%30.07 "HgN/A
12:00 AM64 °FPartly cloudy.2 mph68%30.07 "HgN/A
11:30 PM
Nov 25
64 °FPartly cloudy.3 mph73%30.07 "HgN/A
11:00 PM64 °FPartly cloudy.No wind73%30.07 "HgN/A
10:30 PM66 °FPartly cloudy.5 mph73%30.09 "HgN/A
10:00 PM66 °FPartly cloudy.3 mph73%30.07 "HgN/A
9:30 PM66 °FPartly cloudy.5 mph73%30.07 "HgN/A
9:00 PM66 °FPassing clouds.2 mph73%30.07 "HgN/A
8:30 PM66 °FPassing clouds.No wind78%30.07 "HgN/A
8:00 PM66 °FPassing clouds.No wind78%30.07 "HgN/A
7:30 PM64 °FPassing clouds.No wind83%30.07 "HgN/A
7:00 PM68 °FPassing clouds.No wind73%30.07 "HgN/A
6:00 PM66 °FPassing clouds.No wind68%30.07 "HgN/A
5:30 PM68 °FPassing clouds.No wind60%30.07 "HgN/A
5:00 PM68 °FScattered clouds.No wind69%30.07 "HgN/A
4:30 PM70 °FScattered clouds.No wind64%30.07 "HgN/A
4:00 PM72 °FScattered clouds.No wind53%30.07 "HgN/A
3:30 PM72 °FScattered clouds.No wind53%30.07 "HgN/A
3:00 PM72 °FScattered clouds.3 mph53%30.09 "HgN/A
2:30 PM70 °FScattered clouds.3 mph57%30.09 "HgN/A
2:00 PM70 °FScattered clouds.No wind53%30.09 "HgN/A
1:30 PM70 °FScattered clouds.No wind60%30.09 "HgN/A
1:00 PM70 °FBroken clouds.No wind57%30.09 "HgN/A
12:30 PM70 °FBroken clouds.No wind53%30.12 "HgN/A
12:00 PM70 °FBroken clouds.7 mph53%30.12 "HgN/A
11:30 AM70 °FBroken clouds.10 mph53%30.12 "HgN/A
11:00 AM70 °FScattered clouds.15 mph53%30.15 "HgN/A
10:30 AM70 °FScattered clouds.No wind53%30.12 "HgN/A
10:00 AM68 °FScattered clouds.No wind56%30.12 "HgN/A
9:30 AM66 °FScattered clouds.5 mph60%30.12 "HgN/A
9:00 AM66 °FScattered clouds.No wind64%30.09 "HgN/A
8:30 AM66 °FScattered clouds.No wind68%30.09 "HgN/A
8:00 AM64 °FScattered clouds.5 mph73%30.09 "HgN/A
7:30 AM61 °FScattered clouds.No wind77%30.09 "HgN/A
7:00 AM63 °FPassing clouds.No wind73%30.09 "HgN/A
6:30 AM64 °FPassing clouds.No wind64%30.09 "HgN/A
6:00 AM64 °FPassing clouds.6 mph64%30.09 "HgN/A
5:30 AM66 °FPassing clouds.6 mph60%30.09 "HgN/A
5:00 AM68 °FPassing clouds.6 mph53%30.12 "HgN/A
Weather by CustomWeather, © 2014

See weather overviewHow to use our weather pages